Rieti Airport LIQN

Flugplatz Daten

Name: Rieti Airport

Ident: LIQN

Lat: 42,42720032

Long: 12,85169983

Platzhöhe: 1278 ft

IataCode: QRT

City: Rieti

Metar

2022/08/13 16:50
LIQN 131650Z 31009KT CAVOK 27/09 Q1012

Taf

Gewünschte Webcam nicht vorhanden? Dann fügen Sie eine hinzu. Sie wird dann so schnell wie möglich freigeschaltet
Url: Title: